Location: Tambov
(52.7163°N, 41.4075°E)
Time: 06:42:25
(UTC+03:00)

Envisat - Pass Details

Date: 06 March 2021
Orbit: 764 x 766 km, 98.1° (Epoch: 18 April)

Event Time Altitude Azimuth Distance (km) Brightness Sun altitude
Rises 04:25:35 0° 28° (NNE) 3,246 7.0 -22.3°
Reaches altitude 10° 04:29:08 10° 54° (NE) 2,313 6.5 -21.8°
Maximum altitude 04:31:41 14° 84° (E) 2,054 6.2 -21.5°
Drops below altitude 10° 04:34:14 10° 115° (ESE) 2,304 6.1 -21.1°
Sets 04:37:45 0° 141° (SE) 3,223 6.5 -20.6°
